Weather History for Adana Incirlik AFB, Turkey

Change the Weather History Date:

Thursday, January 9, 2014

  Actual Average Record
Temperature  
Mean Temperature 53 °F -  
Max Temperature 64 °F 60 °F 64 °F (2003)
Min Temperature 41 °F 43 °F 28 °F (2013)
Degree Days  
Heating Degree Days 12    
Growing Degree Days 3 (Base 50)    
Moisture  
Dew Point 26 °F    
Average Humidity 33    
Maximum Humidity 57    
Minimum Humidity 15    
Precipitation  
Precipitation 0.00 in - - ()
Sea Level Pressure  
Sea Level Pressure 30.09 in    
Wind  
Wind Speed 11 mph ()    
Max Wind Speed 22 mph    
Max Gust Speed -    
Visibility 6.0 miles    
Events      
Averages and records for this station are not official NWS values.
T = Trace of Precipitation, MM = Missing Value Source: Averaged Metar Reports

Daily Weather History Graph

Daily Weather History Graph

Search for Another Location

Airport:

Trip Planner

Search our weather history database for the weather conditions in past years. The results will help you decide how hot, cold, wet, or windy it might be!

Date:

Astronomy

Jan. 09, 2014 Rise Set
Actual Time 6:51 AM EET 4:39 PM EET
Civil Twilight 6:23 AM EET 5:07 PM EET
Nautical Twilight 5:51 AM EET 5:39 PM EET
Astronomical Twilight 5:19 AM EET 6:11 PM EET
Moon 11:50 AM EET (1/9) 12:42 AM EET (1/9)
Length of Visible Light 10h 44m
Length of Day
9h 47m
Waxing Gibbous, 63% of the Moon is Illuminated
Jan 9
Waxing Gibbous
Jan 16
Full
Jan 24
Last Quarter
Jan 30
New
Feb 6
First Quarter

Hourly Weather History & Observations

Time (EET) Temp. Windchill Dew Point Humidity Pressure Visibility Wind Dir Wind Speed Gust Speed Precip Events Conditions
12:50 AM 51.8 °F - 24.8 °F 35% 30.09 in - NE 5.8 mph - N/A   Clear
1:20 AM 51.8 °F - 24.8 °F 35% 30.09 in - NE 12.7 mph - N/A   Clear
1:50 AM 50.0 °F - 24.8 °F 37% 30.09 in - NE 11.5 mph - N/A   Clear
2:00 AM 51 °F - 25 °F 23% 30.09 in 6 mi NE 11.5 mph - -   Clear
2:20 AM 51.8 °F - 24.8 °F 35% 30.09 in - NE 11.5 mph - N/A   Clear
3:50 AM 53.6 °F - 24.8 °F 33% 30.09 in - NE 15.0 mph - N/A   Clear
4:20 AM 53.6 °F - 24.8 °F 33% 30.09 in - NE 15.0 mph - N/A   Clear
4:50 AM 51.8 °F - 23.0 °F 33% 30.09 in - NE 11.5 mph - N/A   Clear
5:00 AM 53 °F - 24 °F 20% 30.10 in 6 mi NE 11.5 mph - -   Clear
5:20 AM 51.8 °F - 23.0 °F 33% 30.09 in - NE 12.7 mph - N/A   Clear
5:50 AM 48.2 °F - 23.0 °F 37% 30.09 in - NE 9.2 mph - N/A   Clear
6:20 AM 50.0 °F - 23.0 °F 35% 30.09 in - NE 13.8 mph - N/A   Clear
6:50 AM 53.6 °F - 23.0 °F 30% 30.09 in - NNE 15.0 mph - N/A   Clear
7:20 AM 53.6 °F - 23.0 °F 30% 30.12 in - NE 13.8 mph - N/A   Clear
7:50 AM 55.4 °F - 23.0 °F 29% 30.12 in - NE 15.0 mph - N/A   Clear
8:00 AM 55 °F - 23 °F 17% 30.13 in 6 mi NE 15.0 mph - -   Clear
8:20 AM 55.4 °F - 23.0 °F 29% 30.12 in - ENE 18.4 mph - N/A   Clear
8:50 AM 57.2 °F - 23.0 °F 27% 30.12 in - NE 17.3 mph - N/A   Clear
9:20 AM 57.2 °F - 23.0 °F 27% 30.12 in - NE 17.3 mph - N/A   Clear
9:50 AM 59.0 °F - 23.0 °F 25% 30.12 in - NE 17.3 mph - N/A   Clear
10:20 AM 59.0 °F - 24.8 °F 27% 30.12 in - NE 21.9 mph - N/A   Clear
10:50 AM 59.0 °F - 26.6 °F 29% 30.09 in - NE 16.1 mph - N/A   Clear
11:00 AM 59 °F - 26 °F 17% 30.11 in 6 mi NE 16.1 mph - -   Partly Cloudy
11:20 AM 60.8 °F - 26.6 °F 27% 30.09 in - NE 16.1 mph - N/A   Clear
11:50 AM 60.8 °F - 26.6 °F 27% 30.09 in - ENE 17.3 mph - N/A   Clear
12:20 PM 64.4 °F - 26.6 °F 24% 30.06 in - NE 17.3 mph - N/A   Clear
12:50 PM 64.4 °F - 28.4 °F 26% 30.04 in - ENE 17.3 mph - N/A   Clear
1:20 PM 62.6 °F - 26.6 °F 26% 30.04 in - ENE 20.7 mph - N/A   Clear
1:50 PM 62.6 °F - 28.4 °F 27% 30.04 in - ENE 19.6 mph - N/A   Clear
2:00 PM 63 °F - 28 °F 15% 30.04 in 6 mi ENE 19.6 mph - -   Partly Cloudy
2:20 PM 62.6 °F - 26.6 °F 26% 30.04 in - ENE 13.8 mph - N/A   Clear
2:50 PM 60.8 °F - 28.4 °F 29% 30.04 in - ENE 12.7 mph - N/A   Clear
3:20 PM 60.8 °F - 26.6 °F 27% 30.04 in - ENE 9.2 mph - N/A   Clear
3:50 PM 59.0 °F - 26.6 °F 29% 30.04 in - ENE 11.5 mph - N/A   Clear
4:20 PM 55.4 °F - 26.6 °F 33% 30.06 in - East 9.2 mph - N/A   Clear
4:50 PM 57.2 °F - 24.8 °F 29% 30.06 in - SSE 8.1 mph - N/A   Clear
5:00 PM 57 °F - 25 °F 18% 30.08 in 6 mi SSE 8.1 mph - -   Partly Cloudy
5:20 PM 55.4 °F - 30.2 °F 38% 30.06 in - SSW 3.5 mph - N/A   Clear
5:50 PM 51.8 °F - 30.2 °F 44% 30.09 in - NNE 6.9 mph - N/A   Clear
6:20 PM 51.8 °F - 28.4 °F 41% 30.09 in - NNE 6.9 mph - N/A   Clear
6:50 PM 48.2 °F - 26.6 °F 43% 30.09 in - North 6.9 mph - N/A   Clear
7:20 PM 46.4 °F 42.9 °F 28.4 °F 50% 30.09 in - NNE 6.9 mph - N/A   Clear
7:50 PM 46.4 °F 42.4 °F 28.4 °F 50% 30.09 in - North 8.1 mph - N/A   Clear
8:00 PM 47 °F - 28 °F 34% 30.12 in 6 mi North 8.1 mph - -   Partly Cloudy
8:20 PM 44.6 °F 43.1 °F 28.4 °F 53% 30.09 in - NNE 3.5 mph - N/A   Clear
8:50 PM 42.8 °F 38.6 °F 28.4 °F 57% 30.09 in - North 6.9 mph - N/A   Clear
9:20 PM 46.4 °F 41.9 °F 26.6 °F 46% 30.09 in - NNE 9.2 mph - N/A   Clear
9:50 PM 44.6 °F 41.4 °F 26.6 °F 49% 30.09 in - NNE 5.8 mph - N/A   Clear
10:20 PM 50.0 °F - 26.6 °F 40% 30.09 in - NNE 10.4 mph - N/A   Clear
10:50 PM 46.4 °F 41.5 °F 26.6 °F 46% 30.09 in - NE 10.4 mph - N/A   Clear
11:20 PM 46.4 °F 41.9 °F 26.6 °F 46% 30.09 in - NE 9.2 mph - N/A   Clear
11:50 PM 41.0 °F 36.4 °F 26.6 °F 57% 30.09 in - NNE 6.9 mph - N/A   Clear